Change the Weather History Date:

Thursday, October 3, 2013

  Actual Average Record
Temperature  
Mean Temperature 10 °F -  
Max Temperature 13 °F - - ()
Min Temperature 8 °F - - ()
Degree Days  
Heating Degree Days 54    
Moisture  
Dew Point 8 °F    
Average Humidity 86    
Maximum Humidity 90    
Minimum Humidity 76    
Precipitation  
Precipitation 0.00 in - - ()
Sea Level Pressure  
Sea Level Pressure 30.28 in    
Wind  
Wind Speed 11 mph ()    
Max Wind Speed 17 mph    
Max Gust Speed -    
T = Trace of Precipitation, MM = Missing Value Source: Averaged Metar Reports

Daily Weather History Graph

Daily Weather History Graph

Search for Another Location

Airport or City:

Trip Planner

Search our weather history database for the weather conditions in past years. The results will help you decide how hot, cold, wet, or windy it might be!

Date:

Astronomy

Oct. 03, 2013 Rise Set
Actual Time 6:57 AM MDT 5:17 PM MDT
Civil Twilight 5:38 AM MDT 6:36 PM MDT
Nautical Twilight 4:01 AM MDT 8:11 PM MDT
Astronomical Twilight 1:44 AM MDT 10:22 PM MDT
Moon 4:53 AM MDT 4:42 PM MDT
Length of Visible Light 12h 58m
Length of Day
10h 20m
Waning Crescent, 2% of the Moon is Illuminated
Oct 3
Waning Crescent
Oct 4
New
Oct 11
First Quarter
Oct 18
Full
Oct 26
Last Quarter

Hourly Weather History & Observations

Time (MDT) Temp. Windchill Dew Point Humidity Pressure Visibility Wind Dir Wind Speed Gust Speed Precip Events Conditions
12:00 AM 11 °F - 8 °F 83% 30.24 in - NNW 13.8 mph - -  
12:00 AM 10.6 °F -5.2 °F 8.2 °F 90% 30.24 in - NNW 13.8 mph - N/A   Unknown
1:00 AM 10.0 °F -7.6 °F 7.5 °F 90% 30.24 in - NW 17.3 mph - N/A   Unknown
2:00 AM 9.5 °F -7.2 °F 6.8 °F 89% 30.25 in - NW 15.0 mph - N/A   Unknown
3:00 AM 9.3 °F -4.6 °F 6.6 °F 89% 30.26 in - NW 10.4 mph - N/A   Unknown
4:00 AM 9.1 °F -6.4 °F 6.1 °F 87% 30.27 in - North 12.7 mph - N/A   Unknown
5:00 AM 10.6 °F -5.8 °F 7.7 °F 88% 30.27 in - North 15.0 mph - N/A   Unknown
6:00 AM 13 °F - 11 °F 85% 30.28 in - NNW 11.5 mph - -  
6:00 AM 13.3 °F -0.5 °F 10.6 °F 89% 30.28 in - NNW 11.5 mph - N/A   Unknown
7:00 AM 13.3 °F -1.8 °F 10.8 °F 90% 30.28 in - NW 13.8 mph - N/A   Unknown
8:00 AM 10.8 °F -2.0 °F 7.7 °F 87% 30.28 in - North 9.2 mph - N/A   Unknown
9:00 AM 11.7 °F -3.2 °F 9.1 °F 90% 30.28 in - North 12.7 mph - N/A   Unknown
10:00 AM 10.8 °F -2.0 °F 7.3 °F 86% 30.28 in - North 9.2 mph - N/A   Unknown
11:00 AM 10.6 °F -2.2 °F 6.6 °F 84% 30.28 in - North 9.2 mph - N/A   Unknown
12:00 PM 11 °F - 7 °F 76% 30.29 in - North 9.2 mph - -  
12:00 PM 11.3 °F -1.3 °F 7.0 °F 83% 30.29 in - North 9.2 mph - N/A   Unknown
1:00 PM 11.8 °F -2.3 °F 8.4 °F 86% 30.29 in - NW 11.5 mph - N/A   Unknown
2:00 PM 12.2 °F 1.7 °F 7.9 °F 83% 30.30 in - NNW 6.9 mph - N/A   Unknown
3:00 PM 12.9 °F 1.6 °F 8.8 °F 84% 30.30 in - NNW 8.1 mph - N/A   Unknown
4:00 PM 12.7 °F -1.1 °F 8.8 °F 84% 30.30 in - NNW 11.5 mph - N/A   Unknown
5:00 PM 11.8 °F -3.6 °F 8.4 °F 86% 30.29 in - NNW 13.8 mph - N/A   Unknown
6:00 PM 10 °F - 6 °F 79% 30.29 in - NNW 9.2 mph - -  
6:00 PM 9.9 °F -3.1 °F 6.4 °F 86% 30.29 in - NNW 9.2 mph - N/A   Unknown
7:00 PM 9.0 °F -3.2 °F 5.5 °F 86% 30.29 in - NNW 8.1 mph - N/A   Unknown
8:00 PM 11.8 °F -4.2 °F 9.1 °F 89% 30.28 in - NW 15.0 mph - N/A   Unknown
9:00 PM 10.6 °F -3.1 °F 7.7 °F 88% 30.28 in - NNW 10.4 mph - N/A   Unknown
11:00 PM 10.9 °F -3.4 °F 8.6 °F 90% 30.27 in - NW 11.5 mph - N/A   Unknown